[[{"header":{"parameterUnit":"m.s-1","parameterCategory":2,"la1":30.2991,"la2":30.254,"lo1":-89.0895,"lo2":-89.0444,"dy":0.0017,"dx":0.0017,"nx":28,"ny":28,"refTime":"2024-07-20T03:00:00:Z","depth":"0","parameterNumber":2,"parameterNumberName":"U-component_of_CURRENTS"},"data":[0,0,0,0,0,0,0,0,0,0,0,0,0,0,0,0,0,0,0,0,0,0,0,0,0,0,0,0,0,0,0,0,0,0,0,0,0,0,0,0,0,0,0,0,0,0,0,0,0,0,0,0,0,0,0,0,0,0,0.3662,0.3662,0,0.3664,0.3663,0.3663,0.3636,0.3635,0.3634,0.3634,0.366,0.3661,0.3663,0,0,0,0,0,0,0,0,0,0,0,0,0,0.369,0.3689,0.3662,0.3662,0.3663,0.3664,0.3663,0.3663,0.3636,0.3635,0.3634,0.3633,0.366,0.3661,0.3663,0,0,0,0,0,0,0,0,0,0,0,0,0,0.3682,0.3689,0.3662,0.3649,0.3648,0.3664,0.3663,0.3663,0.3636,0.3635,0.3634,0.3633,0.3659,0.3661,0.3663,0.3695,0,0,0.3669,0.367,0,0,0,0,0,0,0,0,0.3683,0.3681,0.3651,0.365,0.3649,0.3649,0.3683,0.3676,0.3636,0.364,0.3634,0.3632,0.366,0.3662,0.3663,0.3697,0.3698,0.3669,0.367,0.3671,0.3672,0,0,0,0,0,0,0,0.3683,0.3681,0.3662,0.3651,0.365,0.3662,0.3659,0.3681,0.3655,0.3639,0.3637,0.3639,0.3659,0.3661,0.3663,0.3698,0.3669,0.3671,0.3672,0.3673,0.3901,0.3905,0,0,0,0,0,0,0.3683,0.3681,0.3662,0.3662,0.3665,0.3662,0.3659,0.3649,0.3654,0.3654,0.364,0.3638,0.3658,0.3661,0.3664,0.3831,0.3671,0.3673,0.3674,0.3896,0.3902,0.3907,0,0,0,0,0,0,0.3683,0.3681,0.3662,0.3673,0.3672,0.3662,0.3652,0.365,0.3657,0.3655,0.3655,0.3649,0.3657,0.3661,0.3717,0.3827,0.3674,0.3676,0.389,0.3898,0.3904,0.4082,0,0,0,0,0,0,0.3684,0.3681,0.3682,0.3673,0.3671,0.3683,0.3653,0.3651,0.3659,0.3657,0.3663,0.3664,0.3657,0.3715,0.372,0.3827,0.3677,0.3884,0.3893,0.3902,0.407,0.4095,0.4116,0,0,0,0,0,0.3685,0.3689,0.3681,0.368,0.3669,0.3684,0.3685,0.3674,0.3661,0.3674,0.3695,0.3664,0.3777,0.3719,0.3724,0.3834,0.388,0.3891,0.3901,0.406,0.409,0.4115,0,0,0,0,0,0,0.3702,0.3686,0.3678,0.3676,0.3686,0.368,0.3691,0.3685,0.3709,0.3713,0.3704,0.3709,0.3806,0.3793,0.3729,0.3931,0.3833,0.3845,0.3953,0.398,0.4003,0.4001,0.3679,0,0,0,0,0,0.3706,0.3701,0.3699,0.3699,0.3706,0.3702,0.3708,0.3707,0.3722,0.373,0.3737,0.3778,0.3856,0.389,0.3926,0.4022,0.4026,0.4104,0.4127,0.4146,0.4152,0.426,0.4293,0.3943,0.3943,0.3942,0,0,0.3709,0.3704,0.3699,0.3703,0.3706,0.3756,0.3703,0.3723,0.3793,0.3733,0.3821,0.3841,0.3895,0.4014,0.4059,0.4016,0.4255,0.416,0.4176,0.4171,0.4275,0.4309,0.4339,0.395,0.3949,0.3948,0,0,0.3729,0.3714,0.3726,0.375,0.3768,0.3789,0.38,0.381,0.3843,0.3928,0.3931,0.4012,0.409,0.4167,0.4221,0.439,0.4362,0.4412,0.4538,0.4645,0.4674,0.4699,0.477,0.48,0.4436,0.4436,0.4436,0,0.3739,0.3758,0.3736,0.3777,0.3819,0.3815,0.3877,0.3927,0.3961,0.4016,0.3982,0.4156,0.4184,0.4378,0.4446,0.4446,0.4476,0.4428,0.4674,0.4699,0.4722,0.4787,0.4818,0.4446,0.4445,0.4444,0.4443,0,0.3778,0.3814,0.3831,0.3892,0.3936,0.3985,0.4055,0.4114,0.4155,0.4205,0.4359,0.4403,0.4504,0.4557,0.456,0.4763,0.4723,0.4679,0.4598,0.4768,0.4826,0.4855,0.446,0.4457,0.4454,0.4451,0,0,0.3756,0.3841,0.3851,0.3913,0.4006,0.4047,0.4193,0.4318,0.4417,0.4488,0.4627,0.4783,0.477,0.4829,0.4847,0.495,0.515,0.4893,0.4894,0.495,0.5372,0.5202,0.5216,0.5148,0.5154,0.5158,0.5353,0,0.3802,0.3903,0.3943,0.408,0.4151,0.4225,0.4359,0.4478,0.4575,0.4703,0.4807,0.4928,0.4893,0.4944,0.5055,0.5118,0.5232,0.51,0.5208,0.5211,0.503,0.5247,0.4939,0.5074,0.5381,0.5386,0.5389,0,0.3833,0.3909,0.4033,0.4192,0.4228,0.4319,0.452,0.4637,0.483,0.4901,0.5038,0.5082,0.5271,0.5187,0.5415,0.533,0.5373,0.5409,0.5417,0.5208,0.5095,0.4952,0.5114,0.5016,0.5433,0.5429,0.5426,0,0.3833,0.3976,0.4082,0.4136,0.4313,0.44,0.4506,0.4693,0.4817,0.5016,0.5113,0.5295,0.54,0.5504,0.5575,0.5516,0.5786,0.571,0.5606,0.5593,0.5324,0.5276,0.5383,0.5878,0.5877,0.5877,0.5876,0,0.3875,0.3964,0.4086,0.4154,0.4301,0.4413,0.4587,0.4713,0.4912,0.5062,0.5197,0.5335,0.5485,0.5632,0.5667,0.5734,0.5871,0.567,0.5655,0.5377,0.5334,0.5222,0.5172,0.5884,0.5883,0.5881,0.588,0,0.3872,0.3944,0.4079,0.4252,0.4302,0.441,0.4617,0.474,0.4924,0.5126,0.5195,0.5431,0.5598,0.5719,0.5896,0.5843,0.5747,0.5897,0.5539,0.5476,0.5206,0.5175,0.5071,0.4932,0.5815,0.5813,0.581,0,0.3886,0.395,0.412,0.4185,0.4263,0.4419,0.4522,0.4724,0.4845,0.5163,0.5249,0.5487,0.5585,0.5785,0.5739,0.578,0.5676,0.5525,0.5348,0.5195,0.5153,0.4985,0.4864,0.5087,0.5079,0.5072,0.5067,0,0.3937,0.3982,0.4086,0.4197,0.4298,0.4421,0.4572,0.4659,0.4891,0.5045,0.5229,0.5334,0.5483,0.5369,0.5418,0.5402,0.5225,0.5386,0.5346,0.47,0.4408,0.4261,0.4951,0.5008,0.5014,0.5018,0.5022,0.5024,0.3962,0.4024,0.4124,0.421,0.4304,0.4372,0.4401,0.454,0.4676,0.4793,0.5036,0.5041,0.5055,0.5038,0.5003,0.4762,0.481,0.4596,0.4611,0.4488,0.4215,0.4755,0.4707,0.471,0.4714,0.4717,0.472,0,0.3985,0.4037,0.4127,0.4197,0.4207,0.429,0.4383,0.434,0.4359,0.4486,0.4566,0.4526,0.4388,0.4382,0.4223,0.4045,0.3853,0.3952,0.3678,0.3631,0.4225,0.4051,0.3711,0.3711,0.3711,0.3711,0.3711,0.3711,0.4007,0.4056,0.4071,0.4053,0.4073,0.4007,0.3993,0.3941,0.3949,0.3854,0.3781,0.3843,0.3996,0.392,0.3712,0.3607,0.3402,0.3149,0.3276,0.3727,0.3789,0.3847,0.3677,0.3263,0.3263,0.2464,0.2459,0.2454]},{"header":{"parameterUnit":"m.s-1","parameterCategory":2,"la1":30.2991,"la2":30.254,"lo1":-89.0895,"lo2":-89.0444,"dy":0.0017,"dx":0.0017,"nx":28,"ny":28,"refTime":"2024-07-20T03:00:00:Z","depth":"0","parameterNumber":3,"parameterNumberName":"V-component_of_CURRENTS"},"data":[0,0,0,0,0,0,0,0,0,0,0,0,0,0,0,0,0,0,0,0,0,0,0,0,0,0,0,0,0,0,0,0,0,0,0,0,0,0,0,0,0,0,0,0,0,0,0,0,0,0,0,0,0,0,0,0,0,0,0.023,0.0229,0,0.016,0.0159,0.0158,0.0112,0.0111,0.0111,0.0111,0.004,0.0038,0.0037,0,0,0,0,0,0,0,0,0,0,0,0,0,0.0273,0.0272,0.023,0.0229,0.0229,0.016,0.0159,0.0158,0.0112,0.0111,0.0111,0.0111,0.0041,0.0039,0.0036,0,0,0,0,0,0,0,0,0,0,0,0,0,0.0232,0.0272,0.023,0.0198,0.0195,0.0161,0.0159,0.0158,0.0112,0.0111,0.0111,0.0111,0.0041,0.0039,0.0036,0.0025,0,0,0.0028,0.0027,0,0,0,0,0,0,0,0,0.0235,0.023,0.0204,0.0201,0.0197,0.0146,0.0148,0.0114,0.0112,0.0142,0.0111,0.0111,0.0077,0.0071,0.0056,0.0022,0.0019,0.0028,0.0026,0.0025,0.0025,0,0,0,0,0,0,0,0.0238,0.0233,0.0201,0.0203,0.0199,0.0171,0.0165,0.0141,0.011,0.0139,0.0136,0.0131,0.0074,0.0059,0.0054,0.0018,0.0028,0.0026,0.0024,0.0023,-0.0005,-0.0004,0,0,0,0,0,0,0.0252,0.0236,0.0203,0.0199,0.0217,0.017,0.0164,0.0161,0.011,0.0103,0.0131,0.0129,0.0063,0.0057,0.0051,0.0082,0.0025,0.0023,0.0021,-0.0006,-0.0005,-0.0004,0,0,0,0,0,0,0.0254,0.025,0.0206,0.0217,0.0209,0.017,0.0167,0.016,0.015,0.0105,0.0097,0.013,0.0063,0.0055,0.0045,0.0078,0.0022,0.0019,-0.0007,-0.0006,-0.0004,0.0114,0,0,0,0,0,0,0.0255,0.0251,0.0253,0.0218,0.0209,0.0198,0.0167,0.0159,0.0148,0.0144,0.0101,0.0094,0.0062,0.0049,0.0042,0.0073,0.0017,-0.0008,-0.0006,-0.0005,0.0109,0.0119,0.0128,0,0,0,0,0,0.0257,0.0265,0.0254,0.0249,0.0214,0.0199,0.0193,0.0162,0.0148,0.0151,0.0125,0.0095,0.0054,0.0048,0.004,0.007,-0.0009,-0.0007,-0.0005,0.0105,0.0117,0.0128,0,0,0,0,0,0,0.0279,0.026,0.0247,0.0247,0.023,0.0192,0.0189,0.0171,0.015,0.0146,0.0105,0.0097,0.01,0.0064,0.0059,0.0064,0.0018,0.0018,0.0104,0.0115,0.0125,0.0179,0.0015,0,0,0,0,0,0.0287,0.0291,0.0265,0.0266,0.026,0.0227,0.0217,0.0198,0.0175,0.0165,0.0137,0.011,0.01,0.0092,0.0068,0.0071,0.0052,0.0083,0.0093,0.0101,0.0139,0.0134,0.0147,0.0002,0.0002,0.0002,0,0,0.0294,0.0286,0.0286,0.0272,0.0254,0.0269,0.022,0.0211,0.0234,0.0162,0.0179,0.014,0.0106,0.0114,0.0112,0.009,0.0128,0.0103,0.0111,0.0145,0.0137,0.0152,0.0164,0.0003,0.0003,0.0003,0,0,0.0323,0.0306,0.0324,0.0321,0.0307,0.0294,0.03,0.027,0.0266,0.0272,0.0232,0.0222,0.0191,0.0184,0.0177,0.0223,0.0177,0.0202,0.0298,0.0293,0.0305,0.0316,0.0299,0.0308,0.0208,0.0208,0.0209,0,0.0332,0.036,0.0326,0.0349,0.0367,0.0318,0.0357,0.0345,0.0319,0.0338,0.0294,0.0282,0.0237,0.028,0.0291,0.025,0.0231,0.0261,0.0308,0.0319,0.0328,0.0308,0.0316,0.0214,0.0214,0.0213,0.0212,0,0.0381,0.0408,0.042,0.0446,0.0455,0.0477,0.0469,0.0478,0.0465,0.0459,0.0484,0.0423,0.0427,0.0399,0.036,0.0409,0.0368,0.0321,0.0288,0.0351,0.0323,0.033,0.0223,0.0221,0.0219,0.0217,0,0,0.0403,0.0448,0.0457,0.0506,0.0516,0.054,0.0583,0.0624,0.068,0.0636,0.071,0.0664,0.0628,0.0617,0.0557,0.0545,0.0571,0.047,0.0467,0.0469,0.0556,0.0488,0.0487,0.053,0.0532,0.0534,0.0506,0,0.046,0.0548,0.0551,0.0649,0.0702,0.0696,0.0755,0.0782,0.0788,0.0838,0.0791,0.082,0.0713,0.0718,0.0693,0.0612,0.0596,0.0583,0.0482,0.048,0.0425,0.0496,0.0479,0.045,0.0512,0.0513,0.0514,0,0.0519,0.0581,0.0689,0.0794,0.0816,0.0865,0.0972,0.1017,0.1061,0.1066,0.1076,0.103,0.1027,0.0913,0.0828,0.0824,0.0713,0.0631,0.0626,0.0537,0.0425,0.0398,0.0459,0.0304,0.0523,0.0522,0.0521,0,0.0587,0.0684,0.079,0.0822,0.0918,0.0979,0.1033,0.1092,0.1171,0.1219,0.1279,0.1233,0.1244,0.111,0.0933,0.0887,0.0827,0.0734,0.0571,0.0563,0.052,0.0505,0.044,0.0683,0.0683,0.0683,0.0683,0,0.0665,0.0752,0.0835,0.0899,0.1043,0.1072,0.1221,0.1261,0.1354,0.149,0.1409,0.1503,0.1296,0.1227,0.1024,0.0836,0.0896,0.0623,0.0569,0.0555,0.0545,0.0382,0.0254,0.0682,0.0682,0.0682,0.0683,0,0.0733,0.0781,0.0916,0.1036,0.1081,0.1188,0.1345,0.1455,0.1521,0.1698,0.1731,0.1729,0.1636,0.1404,0.1198,0.0977,0.0664,0.069,0.0682,0.0628,0.0296,0.0174,0.0026,-0.0054,0.0507,0.0505,0.0504,0,0.0779,0.0855,0.1015,0.1105,0.1166,0.1317,0.1431,0.1531,0.1663,0.1857,0.1965,0.1935,0.1947,0.1607,0.1202,0.084,0.0646,0.0576,0.0475,0.0312,0.0136,0.0054,-0.0008,0.0456,0.0454,0.0453,0.0452,0,0.088,0.0932,0.1041,0.1217,0.1351,0.1518,0.1688,0.1819,0.198,0.2148,0.2353,0.2381,0.2052,0.1688,0.116,0.0894,0.0437,0.0534,0.0383,0.012,0.0012,-0.0102,0.0427,0.044,0.0441,0.0442,0.0442,0.0443,0.0953,0.1041,0.1177,0.1348,0.1504,0.1707,0.1863,0.2067,0.2317,0.2583,0.2613,0.2672,0.2126,0.1404,0.1039,0.0352,0.0331,0.0133,0.0009,-0.0049,-0.0151,0.0346,0.0278,0.0279,0.0279,0.0279,0.0279,0,0.1044,0.1142,0.13,0.1505,0.1683,0.1753,0.2033,0.2214,0.2527,0.2724,0.2899,0.2632,0.197,0.1298,0.036,-0.0081,-0.0225,-0.031,-0.041,-0.0443,0.0029,0.0004,-0.0146,-0.0146,-0.0146,-0.0146,-0.0145,-0.0145,0.1099,0.125,0.1327,0.1619,0.1767,0.2017,0.2184,0.247,0.2659,0.2899,0.2901,0.2868,0.2326,0.0735,-0.031,-0.0536,-0.0766,-0.0874,-0.0983,-0.0654,-0.0621,-0.0589,-0.0636,-0.0918,-0.0919,-0.1373,-0.1378,-0.1382]}],[{"header":{"parameterUnit":"m.s-1","parameterCategory":2,"la1":30.2991,"la2":30.254,"lo1":-89.0895,"lo2":-89.0444,"dy":0.0017,"dx":0.0017,"nx":28,"ny":28,"refTime":"2024-07-20T03:00:00:Z","depth":"2","parameterNumber":2,"parameterNumberName":"U-component_of_CURRENTS"},"data":[0,0,0,0,0,0,0,0,0,0,0,0,0,0,0,0,0,0,0,0,0,0,0,0,0,0,0,0,0,0,0,0,0,0,0,0,0,0,0,0,0,0,0,0,0,0,0,0,0,0,0,0,0,0,0,0,0,0,0.3241,0.3242,0,0.325,0.325,0.325,0.3239,0.3239,0.3238,0.3238,0.3244,0.3244,0.3245,0,0,0,0,0,0,0,0,0,0,0,0,0,0.325,0.3249,0.3241,0.3242,0.3242,0.325,0.325,0.325,0.3239,0.3239,0.3238,0.3238,0.3244,0.3244,0.3245,0,0,0,0,0,0,0,0,0,0,0,0,0,0.325,0.3249,0.3241,0.3238,0.3238,0.325,0.325,0.325,0.3239,0.3239,0.3238,0.3238,0.3243,0.3244,0.3245,0.3257,0,0,0.3246,0.3247,0,0,0,0,0,0,0,0,0.325,0.3249,0.3239,0.3239,0.3239,0.3244,0.3255,0.3253,0.3239,0.3237,0.3238,0.3238,0.3245,0.3245,0.3246,0.3257,0.3257,0.3247,0.3247,0.3247,0.3247,0,0,0,0,0,0,0,0.325,0.3249,0.3243,0.3239,0.3239,0.3249,0.3248,0.3255,0.3242,0.3237,0.3237,0.324,0.3245,0.3245,0.3246,0.3257,0.3247,0.3247,0.3247,0.3248,0.3416,0.342,0,0,0,0,0,0,0.325,0.3249,0.3243,0.3244,0.3245,0.3249,0.3248,0.3242,0.3242,0.3242,0.3241,0.324,0.3244,0.3245,0.3246,0.3364,0.3247,0.3248,0.3248,0.3412,0.3417,0.3422,0,0,0,0,0,0,0.325,0.3249,0.3243,0.3248,0.3248,0.3249,0.3242,0.3242,0.3256,0.3245,0.3244,0.3256,0.3244,0.3245,0.3289,0.336,0.3248,0.3249,0.3407,0.3414,0.3419,0.3533,0,0,0,0,0,0,0.325,0.3249,0.3254,0.3248,0.3248,0.3264,0.3243,0.3243,0.3258,0.3258,0.3258,0.3257,0.3244,0.3288,0.3289,0.3359,0.3249,0.3402,0.341,0.3418,0.3524,0.3543,0.3558,0,0,0,0,0,0.325,0.3256,0.3254,0.3254,0.3252,0.3265,0.3267,0.3265,0.326,0.3274,0.329,0.3258,0.3339,0.3291,0.3292,0.3363,0.3398,0.3408,0.3417,0.3517,0.3539,0.3558,0,0,0,0,0,0,0.3264,0.3256,0.3253,0.3257,0.3268,0.3264,0.3278,0.3277,0.3299,0.3306,0.3291,0.3293,0.3366,0.3352,0.33,0.3441,0.3371,0.3381,0.3448,0.3468,0.3485,0.3488,0.325,0,0,0,0,0,0.3269,0.3269,0.3271,0.3276,0.3284,0.3286,0.3294,0.3297,0.331,0.3319,0.332,0.3349,0.3404,0.3423,0.3451,0.351,0.3518,0.3566,0.3583,0.3598,0.3606,0.3697,0.3722,0.3452,0.3452,0.3452,0,0,0.3273,0.3272,0.3271,0.328,0.3287,0.3317,0.329,0.3312,0.3356,0.3318,0.3376,0.3399,0.3435,0.3515,0.3548,0.351,0.3682,0.3609,0.3621,0.3621,0.3709,0.3735,0.3758,0.3458,0.3457,0.3456,0,0,0.3286,0.3286,0.3295,0.3313,0.3335,0.3347,0.3359,0.3371,0.3397,0.3456,0.3464,0.3529,0.3578,0.3629,0.3664,0.3791,0.3769,0.3811,0.3895,0.3984,0.4006,0.4026,0.4072,0.4095,0.3819,0.3819,0.3819,0,0.3297,0.3307,0.3304,0.333,0.3359,0.3367,0.3406,0.3441,0.3469,0.3516,0.3493,0.3634,0.3643,0.3783,0.3831,0.3829,0.386,0.3807,0.4004,0.4023,0.4042,0.4084,0.4108,0.3825,0.3825,0.3824,0.3823,0,0.332,0.3342,0.3356,0.3395,0.3428,0.3462,0.3511,0.3557,0.3593,0.3635,0.3765,0.3797,0.3885,0.3913,0.3908,0.4063,0.4037,0.4012,0.3943,0.4075,0.4112,0.4135,0.3835,0.3833,0.3831,0.3829,0,0,0.3308,0.3361,0.3368,0.34,0.3469,0.3494,0.3595,0.3688,0.3766,0.3829,0.3942,0.4052,0.4074,0.4116,0.4133,0.42,0.4345,0.4164,0.4166,0.4193,0.4528,0.4363,0.437,0.4359,0.4364,0.4368,0.4501,0,0.3333,0.3392,0.3419,0.3495,0.3537,0.3596,0.3684,0.3778,0.3865,0.3973,0.4067,0.4177,0.4157,0.4211,0.429,0.4336,0.4411,0.431,0.441,0.4412,0.4236,0.4393,0.404,0.4117,0.4523,0.4527,0.4529,0,0.3345,0.3391,0.3464,0.3555,0.3579,0.3636,0.3785,0.3864,0.4034,0.4103,0.4246,0.4313,0.4466,0.4403,0.4581,0.4522,0.4543,0.4557,0.4562,0.438,0.4289,0.4054,0.4142,0.4566,0.4563,0.456,0.4558,0,0.3334,0.3419,0.348,0.3511,0.362,0.3682,0.3756,0.3914,0.4017,0.4201,0.4306,0.4473,0.4584,0.4658,0.4709,0.4669,0.4858,0.4805,0.4679,0.4666,0.4368,0.432,0.4927,0.4927,0.4926,0.4926,0.4926,0,0.3339,0.3384,0.3479,0.3511,0.3605,0.3685,0.3813,0.3911,0.4093,0.4216,0.4378,0.4503,0.4658,0.4781,0.4783,0.4808,0.4937,0.4724,0.4709,0.4397,0.4352,0.4731,0.4707,0.4931,0.493,0.4929,0.4928,0,0.3299,0.3358,0.343,0.3552,0.3595,0.3663,0.3833,0.392,0.4105,0.4278,0.4354,0.4598,0.473,0.484,0.4958,0.4904,0.4923,0.4888,0.4489,0.4423,0.4651,0.4631,0.4783,0.4779,0.4775,0.4772,0.4769,0,0.328,0.3315,0.3441,0.3485,0.3539,0.3653,0.3723,0.3903,0.4001,0.43,0.4368,0.4603,0.4686,0.4821,0.4774,0.4772,0.4864,0.4421,0.427,0.4676,0.4647,0.4633,0.4619,0.3932,0.3923,0.3915,0.3909,0,0.3257,0.3302,0.3361,0.345,0.3521,0.3594,0.3714,0.3786,0.3984,0.4129,0.4288,0.4392,0.4545,0.4387,0.4412,0.4349,0.4389,0.4264,0.4848,0.4003,0.3879,0.3848,0.3862,0.3842,0.3849,0.3854,0.3858,0.386,0.3235,0.3261,0.3337,0.3398,0.3466,0.349,0.3493,0.3605,0.3702,0.3828,0.4034,0.405,0.4116,0.3959,0.3826,0.3733,0.4027,0.3833,0.3855,0.3885,0.3742,0.3617,0.3504,0.3508,0.3512,0.3516,0.3519,0,0.3176,0.3215,0.3278,0.3304,0.3291,0.3397,0.3438,0.3382,0.3371,0.3521,0.3598,0.3337,0.3251,0.3308,0.307,0.3051,0.3015,0.2909,0.2839,0.2909,0.2971,0.2779,0.2287,0.2282,0.2278,0.2274,0,0,0.3149,0.3151,0.3162,0.311,0.3137,0.3051,0.3034,0.2976,0.3004,0.2921,0.2903,0.315,0.3253,0.275,0.267,0.2438,0.2654,0.2338,0.3339,0.3332,0.3388,0.3527,0.3314,0,0,0,0,0]},{"header":{"parameterUnit":"m.s-1","parameterCategory":2,"la1":30.2991,"la2":30.254,"lo1":-89.0895,"lo2":-89.0444,"dy":0.0017,"dx":0.0017,"nx":28,"ny":28,"refTime":"2024-07-20T03:00:00:Z","depth":"2","parameterNumber":3,"parameterNumberName":"V-component_of_CURRENTS"},"data":[0,0,0,0,0,0,0,0,0,0,0,0,0,0,0,0,0,0,0,0,0,0,0,0,0,0,0,0,0,0,0,0,0,0,0,0,0,0,0,0,0,0,0,0,0,0,0,0,0,0,0,0,0,0,0,0,0,0,0.0113,0.0113,0,0.0051,0.005,0.0049,0.0008,0.0008,0.0007,0.0007,-0.0057,-0.0058,-0.006,0,0,0,0,0,0,0,0,0,0,0,0,0,0.015,0.015,0.0113,0.0113,0.0112,0.0051,0.005,0.0049,0.0008,0.0008,0.0007,0.0007,-0.0056,-0.0058,-0.006,0,0,0,0,0,0,0,0,0,0,0,0,0,0.0114,0.015,0.0113,0.0085,0.0082,0.0051,0.005,0.0049,0.0008,0.0008,0.0007,0.0007,-0.0056,-0.0058,-0.006,-0.0071,0,0,-0.0068,-0.0069,0,0,0,0,0,0,0,0,0.0116,0.0113,0.009,0.0087,0.0084,0.0038,0.0039,0.0009,0.0008,0.0034,0.0007,0.0007,-0.0024,-0.0029,-0.0043,-0.0074,-0.0077,-0.0068,-0.0069,-0.007,-0.0071,0,0,0,0,0,0,0,0.0119,0.0115,0.0087,0.0089,0.0085,0.006,0.0055,0.0033,0.0006,0.0032,0.0029,0.0025,-0.0026,-0.004,-0.0044,-0.0078,-0.0068,-0.007,-0.0071,-0.0072,-0.0102,-0.0101,0,0,0,0,0,0,0.0133,0.0118,0.0089,0.0085,0.0102,0.006,0.0054,0.0052,0.0006,-0.0001,0.0025,0.0023,-0.0036,-0.0041,-0.0047,-0.0026,-0.007,-0.0072,-0.0074,-0.0103,-0.0102,-0.0101,0,0,0,0,0,0,0.0134,0.0131,0.0091,0.0101,0.0094,0.006,0.0057,0.0051,0.0043,0.0001,-0.0006,0.0025,-0.0036,-0.0043,-0.0053,-0.0031,-0.0074,-0.0076,-0.0103,-0.0102,-0.0101,-0.0009,0,0,0,0,0,0,0.0135,0.0131,0.0134,0.0102,0.0094,0.0085,0.0057,0.005,0.0041,0.0038,-0.0001,-0.0008,-0.0037,-0.0049,-0.0055,-0.0035,-0.0078,-0.0104,-0.0103,-0.0102,-0.0012,-0.0005,0.0002,0,0,0,0,0,0.0137,0.0144,0.0134,0.0131,0.0099,0.0086,0.008,0.0053,0.0041,0.0044,0.002,-0.0006,-0.0046,-0.005,-0.0058,-0.0037,-0.0105,-0.0103,-0.0102,-0.0016,-0.0006,0.0002,0,0,0,0,0,0,0.0156,0.014,0.0128,0.0129,0.0114,0.008,0.0078,0.0061,0.0043,0.004,0.0002,-0.0006,-0.0006,-0.0037,-0.004,-0.0044,-0.008,-0.008,-0.0012,-0.0003,0.0004,0.004,-0.0079,0,0,0,0,0,0.0164,0.0168,0.0145,0.0146,0.0141,0.0112,0.0103,0.0086,0.0066,0.0057,0.0031,0.0005,-0.0008,-0.0016,-0.0039,-0.004,-0.0068,-0.0033,-0.0026,-0.0019,0.0005,-0.0019,-0.0011,-0.0096,-0.0096,-0.0096,0,0,0.017,0.0163,0.0164,0.0152,0.0136,0.0147,0.0106,0.0099,0.0114,0.0053,0.0064,0.003,-0.0003,-0.0002,-0.0005,-0.0023,-0.0013,-0.0017,-0.0011,0.0009,-0.0017,-0.0008,-0.0001,-0.0095,-0.0096,-0.0096,0,0,0.0196,0.0182,0.0198,0.0195,0.0182,0.0169,0.0174,0.0148,0.0143,0.0144,0.0109,0.0095,0.0066,0.0052,0.0042,0.0076,0.0027,0.0061,0.0129,0.0106,0.0113,0.0119,0.0083,0.0086,0.0064,0.0065,0.0065,0,0.0204,0.0228,0.02,0.022,0.0233,0.019,0.0221,0.0208,0.0184,0.0195,0.0162,0.0138,0.0099,0.012,0.0126,0.0096,0.0067,0.0101,0.0117,0.0123,0.0127,0.0089,0.0091,0.0069,0.0069,0.0068,0.0068,0,0.0247,0.0269,0.0279,0.0299,0.0305,0.0322,0.031,0.0315,0.0301,0.0291,0.03,0.0245,0.024,0.0214,0.0181,0.02,0.0163,0.013,0.01,0.0142,0.0098,0.0098,0.0076,0.0074,0.0073,0.0072,0,0,0.0268,0.0305,0.0312,0.035,0.0356,0.0373,0.0401,0.0426,0.0465,0.0422,0.0471,0.0422,0.039,0.0376,0.0324,0.0294,0.0285,0.0232,0.0229,0.0207,0.0225,0.0171,0.0164,0.0253,0.0254,0.0254,0.0178,0,0.0317,0.0389,0.039,0.0467,0.0509,0.0498,0.0539,0.0552,0.0551,0.0579,0.0526,0.0543,0.0454,0.0457,0.0414,0.0329,0.0291,0.0309,0.018,0.0177,0.0131,0.0165,0.0197,0.013,0.0177,0.0177,0.0177,0,0.0367,0.0417,0.0506,0.0585,0.0602,0.0639,0.0714,0.0746,0.0763,0.0762,0.0755,0.0711,0.0681,0.0591,0.0471,0.0486,0.0372,0.0285,0.0279,0.0202,0.0122,0.0096,0.0127,0.0176,0.0176,0.0176,0.0176,0,0.0425,0.0503,0.0589,0.0613,0.0684,0.0731,0.0772,0.0807,0.087,0.0887,0.0933,0.0863,0.0863,0.0714,0.0531,0.0507,0.0381,0.0323,0.0163,0.0157,0.0149,0.0141,0.0237,0.0237,0.0237,0.0237,0.0237,0,0.049,0.0558,0.0628,0.0678,0.0798,0.0813,0.0934,0.0958,0.1023,0.1127,0.1042,0.1099,0.0896,0.0797,0.0593,0.0386,0.0428,0.0192,0.0143,0.0178,0.0174,0.0186,0.0181,0.0234,0.0235,0.0236,0.0236,0,0.0543,0.0584,0.0692,0.0788,0.0832,0.0919,0.1054,0.1139,0.1182,0.1317,0.134,0.1296,0.1163,0.0927,0.0691,0.0493,0.0277,0.0184,0.0231,0.0189,0.0049,0.005,0.0011,0.0009,0.0007,0.0005,0.0004,0,0.0578,0.0641,0.078,0.0863,0.0915,0.1045,0.1144,0.1217,0.1323,0.1446,0.1527,0.145,0.1408,0.1028,0.0674,0.0316,0.0258,0.0093,0.0048,0.0074,0.0031,0.0034,0.0038,0.0066,0.0065,0.0064,0.0064,0,0.0655,0.0702,0.0795,0.0966,0.1087,0.1234,0.1381,0.1491,0.1604,0.171,0.182,0.1793,0.1462,0.1116,0.0625,0.0376,0.0149,0.0067,0.0107,0.0113,0.0118,0.0077,0.0081,0.0058,0.0059,0.0059,0.006,0.006,0.0715,0.0792,0.092,0.1083,0.1227,0.1413,0.1547,0.1702,0.1884,0.2043,0.2009,0.1962,0.1586,0.0957,0.0544,0.0107,0.0125,-0.0049,-0.0044,-0.0038,-0.0023,-0.0022,-0.0106,-0.0106,-0.0106,-0.0107,-0.0107,0,0.0792,0.0884,0.1034,0.1225,0.1387,0.1463,0.1703,0.1832,0.2045,0.2145,0.2204,0.1831,0.1447,0.0998,0.0369,-0.0013,-0.0029,-0.0159,-0.0085,-0.0077,-0.007,-0.0054,-0.0147,-0.0148,-0.015,-0.0151,0,0,0.0839,0.0981,0.1056,0.1329,0.1471,0.1692,0.1838,0.2029,0.2149,0.2221,0.2181,0.2095,0.1574,0.1103,0.0591,0.0226,0.0158,0.0143,0.0216,0.0372,0.0383,0.0032,0.007,0,0,0,0,0]}],[{"header":{"parameterUnit":"m.s-1","parameterCategory":2,"la1":30.2991,"la2":30.254,"lo1":-89.0895,"lo2":-89.0444,"dy":0.0017,"dx":0.0017,"nx":28,"ny":28,"refTime":"2024-07-20T03:00:00:Z","depth":"4","parameterNumber":2,"parameterNumberName":"U-component_of_CURRENTS"},"data":[0,0,0,0,0,0,0,0,0,0,0,0,0,0,0,0,0,0,0,0,0,0,0,0,0,0,0,0,0,0,0,0,0,0,0,0,0,0,0,0,0,0,0,0,0,0,0,0,0,0,0,0,0,0,0,0,0,0,0.2113,0.2114,0,0.2174,0.2175,0.2176,0.2234,0.2235,0.2236,0.2237,0.2303,0.2304,0.2305,0,0,0,0,0,0,0,0,0,0,0,0,0,0.2047,0.2048,0.2113,0.2114,0.2115,0.2174,0.2175,0.2176,0.2234,0.2235,0.2236,0.2237,0.2303,0.2304,0.2305,0,0,0,0,0,0,0,0,0,0,0,0,0,0.2087,0.2048,0.2113,0.2152,0.2157,0.2174,0.2175,0.2176,0.2233,0.2235,0.2236,0.2238,0.2302,0.2304,0.2305,0.2286,0,0,0.2309,0.231,0,0,0,0,0,0,0,0,0.2084,0.2089,0.2146,0.215,0.2155,0.22,0.2176,0.2214,0.2233,0.2202,0.2237,0.2238,0.2269,0.2273,0.2279,0.2289,0.2292,0.2309,0.231,0.2311,0.2311,0,0,0,0,0,0,0,0.2082,0.2087,0.2135,0.2147,0.2152,0.2168,0.2175,0.2183,0.2226,0.2205,0.221,0.2219,0.2271,0.2277,0.2281,0.2293,0.2309,0.231,0.2311,0.2312,0.2396,0.2398,0,0,0,0,0,0,0.2076,0.2084,0.2133,0.2137,0.2124,0.2168,0.2176,0.2182,0.2226,0.2234,0.2218,0.2222,0.2274,0.2279,0.2283,0.2382,0.2311,0.2312,0.2313,0.2395,0.2397,0.2398,0,0,0,0,0,0,0.2075,0.208,0.2131,0.2114,0.2122,0.2168,0.2175,0.2183,0.2235,0.2236,0.2245,0.2268,0.2276,0.2282,0.2331,0.238,0.2313,0.2314,0.2393,0.2396,0.2398,0.2502,0,0,0,0,0,0,0.2072,0.2079,0.2106,0.2113,0.2123,0.217,0.2174,0.2183,0.2237,0.2244,0.2281,0.2286,0.2277,0.2329,0.2332,0.2381,0.2315,0.2392,0.2394,0.2397,0.2497,0.2508,0.2517,0,0,0,0,0,0.207,0.2092,0.2107,0.2114,0.215,0.2172,0.2179,0.2214,0.2239,0.2266,0.2295,0.2287,0.2348,0.2331,0.2335,0.2385,0.239,0.2394,0.2397,0.2492,0.2505,0.2516,0,0,0,0,0,0,0.208,0.21,0.2117,0.2146,0.2173,0.2183,0.222,0.224,0.2284,0.2305,0.2306,0.2313,0.2374,0.236,0.2341,0.2414,0.2367,0.2371,0.2439,0.2451,0.2461,0.2469,0.2316,0,0,0,0,0,0.2093,0.2118,0.2135,0.2166,0.2184,0.2212,0.2236,0.2258,0.2285,0.2309,0.233,0.2354,0.238,0.2403,0.2414,0.2456,0.2461,0.2488,0.2498,0.2507,0.2515,0.2576,0.2593,0.2409,0.2409,0.2409,0,0,0.2105,0.2122,0.2138,0.2172,0.2199,0.2223,0.2231,0.2279,0.2309,0.2307,0.237,0.2393,0.2398,0.2448,0.2473,0.2451,0.2561,0.2511,0.2519,0.2521,0.2581,0.2599,0.2616,0.2411,0.2411,0.241,0,0,0.2124,0.2161,0.2184,0.2209,0.2256,0.2268,0.2292,0.2326,0.2361,0.2415,0.2424,0.2484,0.2513,0.2534,0.2546,0.2616,0.2612,0.262,0.2683,0.2744,0.276,0.2774,0.2806,0.2822,0.2626,0.2626,0.2627,0,0.2146,0.2167,0.2197,0.2224,0.225,0.2292,0.2319,0.2353,0.2401,0.2437,0.2451,0.2542,0.2555,0.2622,0.265,0.2643,0.2664,0.2642,0.2759,0.2773,0.2786,0.2815,0.2832,0.2632,0.2631,0.2631,0.263,0,0.2164,0.2199,0.222,0.2262,0.2296,0.2331,0.2371,0.242,0.2473,0.2509,0.2607,0.2641,0.27,0.2716,0.271,0.2807,0.2788,0.2767,0.2734,0.2812,0.2836,0.2852,0.264,0.2638,0.2636,0.2635,0,0,0.2155,0.2219,0.223,0.225,0.232,0.2337,0.2407,0.2468,0.253,0.2605,0.2684,0.2762,0.2812,0.2827,0.2843,0.2898,0.3013,0.2881,0.2882,0.2921,0.3139,0.2934,0.2931,0.3023,0.3026,0.3029,0.3121,0,0.2163,0.2204,0.2242,0.2288,0.2308,0.2372,0.2434,0.2505,0.2581,0.2666,0.2746,0.2836,0.2844,0.2902,0.2963,0.3003,0.3059,0.2989,0.305,0.3051,0.2867,0.2943,0.3039,0.3132,0.3136,0.3139,0.314,0,0.2157,0.2185,0.2229,0.2295,0.2316,0.2361,0.2465,0.2534,0.2665,0.2733,0.2849,0.2912,0.3032,0.3016,0.3155,0.3115,0.3141,0.3161,0.3165,0.2946,0.2874,0.3037,0.3168,0.3166,0.3164,0.3162,0.316,0,0.2103,0.2169,0.2203,0.2225,0.2314,0.2363,0.2435,0.2566,0.264,0.28,0.2883,0.3014,0.3118,0.3179,0.3248,0.322,0.3367,0.3328,0.3164,0.3149,0.3262,0.3245,0.3415,0.3415,0.3414,0.3414,0.3414,0,0.2063,0.209,0.2184,0.2197,0.2258,0.235,0.2454,0.2542,0.2692,0.2786,0.2938,0.3025,0.3173,0.3267,0.3286,0.3276,0.3412,0.3185,0.3165,0.3301,0.3288,0.3272,0.3255,0.3418,0.3417,0.3416,0.3416,0,0.1977,0.2047,0.208,0.2185,0.2231,0.228,0.2446,0.2511,0.2694,0.2819,0.2883,0.308,0.3209,0.3308,0.3417,0.3323,0.3326,0.3284,0.3431,0.3415,0.3055,0.3041,0.31,0.3093,0.3088,0.3084,0.308,0,0.1925,0.1941,0.2055,0.2085,0.2134,0.224,0.2312,0.2488,0.256,0.2822,0.2855,0.3062,0.3167,0.3171,0.3278,0.3294,0.3255,0.3222,0.3122,0.3051,0.3027,0.3022,0.3016,0.3071,0.307,0.3068,0.3067,0,0.1812,0.1878,0.1904,0.1987,0.2051,0.2113,0.2233,0.2264,0.2475,0.2667,0.277,0.2841,0.2978,0.3052,0.3095,0.3094,0.3219,0.3165,0.3175,0.3081,0.3017,0.2997,0.2998,0.3048,0.3051,0.3053,0.3054,0,0.1735,0.1722,0.1793,0.1842,0.1929,0.1946,0.2029,0.2118,0.2219,0.25,0.2531,0.2754,0.2952,0.295,0.2984,0.2975,0.292,0.2798,0.2826,0.2848,0.2719,0.2598,0.2494,0,0,0,0,0,0.1637,0.1612,0.1644,0.1674,0.1763,0.1821,0.1953,0.2044,0.2253,0.2259,0.2388,0.25,0.2585,0.2702,0.2641,0.2848,0.2912,0.276,0.2781,0.2945,0.2966,0.2835,0,0,0,0,0,0,0.1565,0.1586,0.158,0.1538,0.1548,0.1614,0.1693,0.1828,0.1853,0.2089,0.2162,0.2342,0.2473,0.2606,0.2598,0.2626,0.258,0.2898,0.2891,0.2933,0.2952,0.297,0.2842,0,0,0,0,0]},{"header":{"parameterUnit":"m.s-1","parameterCategory":2,"la1":30.2991,"la2":30.254,"lo1":-89.0895,"lo2":-89.0444,"dy":0.0017,"dx":0.0017,"nx":28,"ny":28,"refTime":"2024-07-20T03:00:00:Z","depth":"4","parameterNumber":3,"parameterNumberName":"V-component_of_CURRENTS"},"data":[0,0,0,0,0,0,0,0,0,0,0,0,0,0,0,0,0,0,0,0,0,0,0,0,0,0,0,0,0,0,0,0,0,0,0,0,0,0,0,0,0,0,0,0,0,0,0,0,0,0,0,0,0,0,0,0,0,0,0.0062,0.0062,0,0.0021,0.002,0.002,-0.001,-0.001,-0.001,-0.001,-0.0053,-0.0054,-0.0055,0,0,0,0,0,0,0,0,0,0,0,0,0,0.0084,0.0084,0.0062,0.0062,0.0061,0.0021,0.002,0.002,-0.001,-0.001,-0.001,-0.001,-0.0052,-0.0053,-0.0055,0,0,0,0,0,0,0,0,0,0,0,0,0,0.0061,0.0084,0.0062,0.0043,0.004,0.0021,0.002,0.002,-0.001,-0.001,-0.001,-0.0011,-0.0052,-0.0053,-0.0055,-0.0059,0,0,-0.0059,-0.006,0,0,0,0,0,0,0,0,0.0062,0.006,0.0046,0.0044,0.0041,0.0011,0.0013,-0.0007,-0.001,0.0008,-0.001,-0.0011,-0.003,-0.0034,-0.0042,-0.0061,-0.0063,-0.0059,-0.006,-0.0061,-0.0061,0,0,0,0,0,0,0,0.0064,0.0062,0.0045,0.0045,0.0043,0.0025,0.0022,0.0009,-0.001,0.0006,0.0004,0.0002,-0.0032,-0.0041,-0.0044,-0.0064,-0.0059,-0.0061,-0.0062,-0.0062,-0.0074,-0.0074,0,0,0,0,0,0,0.0073,0.0063,0.0046,0.0044,0.0053,0.0025,0.0021,0.002,-0.001,-0.0015,0.0002,0.0001,-0.0038,-0.0042,-0.0045,-0.0029,-0.0061,-0.0062,-0.0063,-0.0075,-0.0074,-0.0073,0,0,0,0,0,0,0.0074,0.0072,0.0048,0.0053,0.0049,0.0025,0.0024,0.002,0.0015,-0.0013,-0.0018,0.0002,-0.0039,-0.0043,-0.0046,-0.0032,-0.0063,-0.0064,-0.0075,-0.0075,-0.0074,-0.0012,0,0,0,0,0,0,0.0075,0.0073,0.0075,0.0054,0.0049,0.0045,0.0024,0.0019,0.0013,0.0011,-0.0015,-0.0019,-0.0039,-0.0044,-0.0048,-0.0035,-0.0065,-0.0076,-0.0075,-0.0074,-0.0015,-0.001,-0.0005,0,0,0,0,0,0.0076,0.0082,0.0075,0.0073,0.0053,0.0046,0.0042,0.0023,0.0014,0.0017,0.0001,-0.0018,-0.004,-0.0045,-0.0049,-0.0036,-0.0077,-0.0075,-0.0074,-0.0017,-0.0011,-0.0005,0,0,0,0,0,0,0.0089,0.0079,0.0071,0.0073,0.0065,0.0042,0.0041,0.0029,0.0018,0.0016,-0.001,-0.0015,-0.0014,-0.0033,-0.0037,-0.0037,-0.0062,-0.0062,-0.0017,-0.0011,-0.0006,0.001,-0.0067,0,0,0,0,0,0.0095,0.0099,0.0084,0.0087,0.0084,0.0064,0.0058,0.0047,0.0034,0.0028,0.0012,-0.0005,-0.0013,-0.0018,-0.0032,-0.003,-0.0062,-0.0026,-0.002,-0.0016,-0.0006,-0.0046,-0.0043,-0.0069,-0.0069,-0.0069,0,0,0.0099,0.0096,0.0097,0.009,0.008,0.009,0.006,0.0056,0.0069,0.0026,0.0036,0.0012,-0.0009,-0.0007,-0.0008,-0.002,-0.0026,-0.0014,-0.001,-0.0002,-0.0044,-0.0042,-0.004,-0.0068,-0.0069,-0.0069,0,0,0.0119,0.011,0.0123,0.0122,0.0115,0.0107,0.011,0.0093,0.009,0.0095,0.0068,0.0056,0.0043,0.003,0.0022,0.0048,0.0001,0.0041,0.0082,0.0043,0.0045,0.0046,0.0005,0.0002,0.0044,0.0045,0.0045,0,0.0125,0.0144,0.0125,0.0141,0.0151,0.0121,0.0145,0.0137,0.0122,0.0128,0.0109,0.0086,0.0064,0.0069,0.0077,0.0061,0.0027,0.0062,0.005,0.0051,0.0051,0.0008,0.0004,0.0048,0.0047,0.0047,0.0047,0,0.0157,0.0175,0.0184,0.02,0.0206,0.0219,0.0212,0.0215,0.0207,0.0198,0.0197,0.0158,0.0149,0.0134,0.0116,0.011,0.0082,0.006,0.0036,0.0057,0.001,0.0005,0.0052,0.0051,0.005,0.0049,0,0,0.0169,0.0201,0.0207,0.0237,0.0243,0.0257,0.0277,0.0292,0.0314,0.0283,0.0305,0.0273,0.0243,0.0232,0.0195,0.0159,0.0126,0.0116,0.0112,0.0077,0.0034,0.0026,0.0018,0.0097,0.0097,0.0097,-0.0,0,0.0205,0.0259,0.0264,0.0323,0.0353,0.0346,0.0377,0.0383,0.0376,0.0385,0.0337,0.034,0.0284,0.028,0.0234,0.0158,0.0116,0.0154,0.0017,0.0013,0.0004,0.0013,0.0095,-0.0005,-0.0006,-0.0007,-0.0008,0,0.0239,0.0277,0.0343,0.0405,0.0418,0.0449,0.0496,0.0522,0.0517,0.0509,0.0485,0.0441,0.0397,0.0342,0.0214,0.0239,0.0148,0.0076,0.007,0.0039,-0.0005,-0.0031,-0.0018,-0.0017,-0.0016,-0.0016,-0.0015,0,0.0272,0.0336,0.0399,0.0419,0.0476,0.0512,0.0546,0.0561,0.0602,0.0591,0.0604,0.0527,0.0503,0.0376,0.0225,0.0221,0.0068,0.0044,-0.0055,-0.0057,-0.0049,-0.0049,-0.005,-0.005,-0.005,-0.0049,-0.0049,0,0.0313,0.0365,0.0425,0.0461,0.0553,0.057,0.0658,0.0672,0.0702,0.0757,0.0678,0.0682,0.051,0.0401,0.025,0.0082,0.0084,-0.0043,-0.0079,-0.0021,-0.0017,-0.0053,-0.0052,-0.0053,-0.0052,-0.0052,-0.0051,0,0.0342,0.0378,0.0459,0.0537,0.0575,0.0642,0.075,0.0804,0.0819,0.0883,0.0888,0.0802,0.0664,0.0472,0.0262,0.0132,-0.004,-0.0105,-0.0029,-0.006,-0.0147,-0.0142,-0.021,-0.0211,-0.0212,-0.0213,-0.0214,0,0.0362,0.0408,0.0521,0.0587,0.0631,0.0736,0.0813,0.0865,0.0923,0.0956,0.0985,0.0879,0.0794,0.0495,0.0279,-0.0014,-0.006,-0.0157,-0.0151,-0.0133,-0.0162,-0.0155,-0.0149,-0.0215,-0.0215,-0.0215,-0.0216,0,0.0404,0.0444,0.0514,0.0651,0.0747,0.0863,0.0969,0.1018,0.1079,0.1091,0.1074,0.0925,0.0765,0.0515,0.0282,0.0069,-0.0097,-0.0167,-0.0167,-0.0161,-0.014,-0.0166,-0.0159,-0.0219,-0.0218,-0.0218,-0.0218,0,0.0439,0.0492,0.059,0.0714,0.0838,0.0955,0.1007,0.1078,0.1138,0.1158,0.1146,0.0973,0.0871,0.0558,0.0343,0.0132,0.008,0.0004,-0.0006,-0.0005,0.0076,0.0135,0.0116,0,0,0,0,0,0.0472,0.0539,0.0649,0.0783,0.0903,0.0981,0.1101,0.1138,0.1186,0.1189,0.1174,0.1026,0.0729,0.0595,0.0387,0.0307,0.0026,0.0052,-0.0071,-0.0235,-0.0232,-0.0173,0,0,0,0,0,0,0.0497,0.0595,0.0649,0.0818,0.0913,0.1054,0.1129,0.1162,0.1162,0.1174,0.102,0.0961,0.0667,0.0849,0.0379,0.0316,0.0205,-0.0082,-0.0087,-0.0237,-0.0234,-0.0231,-0.017,0,0,0,0,0]}]]